DAWBH LPPT-EDGS

Flight info

Callsign DAWBH
Flight time 2h 29m
Altitude 36000
Route IXIDA DCT ABRAT DCT PINOX DCT TOSDI DCT ZMR DCT NEA DCT DGO L176 LUSEM DCT LULUT DCT ADABI DCT BOKNO DCT DIBES DCT VIQAQ DCT TSU DCT OQQAL DCT RANUX DCT VALEK DCT LUTAX UM163 DIK N853 ARCKY T853 IBESA T860 ERUKI ERUKI1A
Aircraft CL60/M-SBDE1E2E3FGHIJ1J4J5J7M3RWXYZ/LB1V1D1

Departure

Time 2026-04-28 15:15
Airport Lisbon Humberto Delgado Airport (LPPT)

Arrival

Time 2026-04-28 17:45
Airport Siegerland Airport (EDGS)
Time Latitude Longitude Altitude Speed Heading
2026-04-28 14:18 38.77798 -9.13264 327 ft 0 kts 77°
2026-04-28 15:09 38.77798 -9.13262 327 ft 1 kts 79°
2026-04-28 15:10 38.77783 -9.13205 323 ft 9 kts 170°
2026-04-28 15:10 38.77744 -9.13252 326 ft 7 kts 257°
2026-04-28 15:10 38.77736 -9.13307 329 ft 7 kts 270°
2026-04-28 15:10 38.77788 -9.13351 332 ft 10 kts 348°
2026-04-28 15:11 38.77861 -9.13372 337 ft 12 kts 348°
2026-04-28 15:11 38.77957 -9.13398 341 ft 13 kts 348°
2026-04-28 15:11 38.78059 -9.13426 344 ft 15 kts 348°
2026-04-28 15:11 38.78128 -9.13444 348 ft 2 kts 348°
2026-04-28 15:12 38.78129 -9.13444 348 ft 0 kts 348°
2026-04-28 15:12 38.78130 -9.13445 349 ft 1 kts 348°
2026-04-28 15:12 38.78179 -9.13458 351 ft 12 kts 348°
2026-04-28 15:13 38.78278 -9.13491 354 ft 12 kts 302°
2026-04-28 15:13 38.78261 -9.13524 355 ft 0 kts 202°
2026-04-28 15:14 38.78260 -9.13524 355 ft 0 kts 202°
2026-04-28 15:15 38.78115 -9.13601 355 ft 63 kts 202°
2026-04-28 15:15 38.77420 -9.13973 351 ft 147 kts 202°
2026-04-28 15:15 38.76352 -9.14535 778 ft 178 kts 204°
2026-04-28 15:15 38.75138 -9.15173 1451 ft 204 kts 203°
2026-04-28 15:16 38.73811 -9.15873 2143 ft 208 kts 203°
2026-04-28 15:16 38.72488 -9.16582 2819 ft 209 kts 202°
2026-04-28 15:16 38.71142 -9.17291 3405 ft 211 kts 202°
2026-04-28 15:16 38.69783 -9.17993 3928 ft 218 kts 201°
2026-04-28 15:17 38.68307 -9.18765 4669 ft 238 kts 202°
2026-04-28 15:17 38.66841 -9.19708 5806 ft 242 kts 217°
2026-04-28 15:17 38.65707 -9.21215 6905 ft 245 kts 238°
2026-04-28 15:17 38.65107 -9.23222 7985 ft 249 kts 262°
2026-04-28 15:18 38.65358 -9.25389 8963 ft 256 kts 290°
2026-04-28 15:18 38.66020 -9.27505 10031 ft 259 kts 294°
2026-04-28 15:18 38.67028 -9.29369 11067 ft 264 kts 316°
2026-04-28 15:18 38.68572 -9.30617 12025 ft 270 kts 339°
2026-04-28 15:19 38.70435 -9.31047 12768 ft 285 kts
2026-04-28 15:19 38.72436 -9.30414 13182 ft 310 kts 29°
2026-04-28 15:19 38.74333 -9.28856 13538 ft 336 kts 35°
2026-04-28 15:19 38.76319 -9.27147 14142 ft 351 kts 34°
2026-04-28 15:20 38.78352 -9.25408 14941 ft 359 kts 34°
2026-04-28 15:20 38.80425 -9.23635 15774 ft 364 kts 34°
2026-04-28 15:20 38.82535 -9.21828 16619 ft 369 kts 34°
2026-04-28 15:20 38.84658 -9.19965 17413 ft 373 kts 39°
2026-04-28 15:21 38.86515 -9.17593 18188 ft 377 kts 49°
2026-04-28 15:21 38.88247 -9.15077 18886 ft 383 kts 49°
2026-04-28 15:21 38.90036 -9.12495 19570 ft 388 kts 50°
2026-04-28 15:21 38.91832 -9.09902 20241 ft 393 kts 50°
2026-04-28 15:22 38.93642 -9.07288 20885 ft 399 kts 50°
2026-04-28 15:22 38.95495 -9.04609 21498 ft 405 kts 50°
2026-04-28 15:22 38.97380 -9.01883 22130 ft 409 kts 50°
2026-04-28 15:22 38.99261 -8.99161 22752 ft 413 kts 50°
2026-04-28 15:23 39.01170 -8.96398 23354 ft 417 kts 50°
2026-04-28 15:23 39.03108 -8.93590 23988 ft 421 kts 50°
2026-04-28 15:23 39.05037 -8.90791 24592 ft 424 kts 50°
2026-04-28 15:23 39.06996 -8.87949 25126 ft 428 kts 50°
2026-04-28 15:24 39.08964 -8.85090 25663 ft 431 kts 50°
2026-04-28 15:24 39.10950 -8.82203 26187 ft 434 kts 50°
2026-04-28 15:24 39.12951 -8.79292 26666 ft 437 kts 50°
2026-04-28 15:24 39.14986 -8.76329 27153 ft 440 kts 50°
2026-04-28 15:25 39.16990 -8.73407 27608 ft 442 kts 50°
2026-04-28 15:25 39.19024 -8.70434 28045 ft 445 kts 50°
2026-04-28 15:25 39.21081 -8.67422 28484 ft 448 kts 50°
2026-04-28 15:25 39.23151 -8.64390 28897 ft 451 kts 50°
2026-04-28 15:26 39.25197 -8.61389 29295 ft 453 kts 50°
2026-04-28 15:26 39.27292 -8.58314 29661 ft 456 kts 50°
2026-04-28 15:26 39.29382 -8.55244 30040 ft 458 kts 50°
2026-04-28 15:26 39.31482 -8.52156 30394 ft 461 kts 50°
2026-04-28 15:27 39.33584 -8.49062 30751 ft 462 kts 50°
2026-04-28 15:27 39.35731 -8.45898 31101 ft 464 kts 50°
2026-04-28 15:27 39.37862 -8.42756 31430 ft 465 kts 50°
2026-04-28 15:27 39.39975 -8.39636 31745 ft 467 kts 50°
2026-04-28 15:28 39.42127 -8.36456 32022 ft 469 kts 50°
2026-04-28 15:28 39.44273 -8.33281 32286 ft 470 kts 51°
2026-04-28 15:28 39.46409 -8.30118 32519 ft 472 kts 51°
2026-04-28 15:28 39.48589 -8.26886 32745 ft 474 kts 51°
2026-04-28 15:29 39.50747 -8.23684 32959 ft 475 kts 51°
2026-04-28 15:29 39.52920 -8.20456 33150 ft 477 kts 51°
2026-04-28 15:29 39.55085 -8.17236 33353 ft 478 kts 51°
2026-04-28 15:29 39.57288 -8.13957 33546 ft 479 kts 51°
2026-04-28 15:30 39.59480 -8.10691 33751 ft 480 kts 51°
2026-04-28 15:30 39.61672 -8.07422 34001 ft 479 kts 51°
2026-04-28 15:30 39.63829 -8.04201 34267 ft 478 kts 51°
2026-04-28 15:30 39.65873 -8.00838 34514 ft 475 kts 58°
2026-04-28 15:31 39.67599 -7.97215 34753 ft 473 kts 61°
2026-04-28 15:31 39.69282 -7.93550 34947 ft 473 kts 61°
2026-04-28 15:31 39.70978 -7.89863 35124 ft 473 kts 61°
2026-04-28 15:31 39.72655 -7.86215 35314 ft 473 kts 61°
2026-04-28 15:32 39.74339 -7.82547 35484 ft 473 kts 61°
2026-04-28 15:32 39.76019 -7.78884 35657 ft 473 kts 61°
2026-04-28 15:32 39.77684 -7.75249 35815 ft 474 kts 61°
2026-04-28 15:33 39.81125 -7.67920 35823 ft 478 kts 56°
2026-04-28 15:33 39.85580 -7.61478 35827 ft 480 kts 43°
2026-04-28 15:34 39.90570 -7.55728 35830 ft 479 kts 42°
2026-04-28 15:34 39.95548 -7.49976 35827 ft 479 kts 42°
2026-04-28 15:35 40.00493 -7.44248 35837 ft 479 kts 42°
2026-04-28 15:35 40.07951 -7.35588 35841 ft 479 kts 42°
2026-04-28 15:36 40.12945 -7.29773 35851 ft 481 kts 43°
2026-04-28 15:36 40.15425 -7.26881 35966 ft 481 kts 43°
2026-04-28 15:36 40.17900 -7.23991 36133 ft 481 kts 43°
2026-04-28 15:37 40.20394 -7.21076 36330 ft 479 kts 43°
2026-04-28 15:37 40.22883 -7.18165 36512 ft 478 kts 43°
2026-04-28 15:37 40.25346 -7.15280 36706 ft 478 kts 43°
2026-04-28 15:37 40.27810 -7.12392 36892 ft 478 kts 43°
2026-04-28 15:38 40.30270 -7.09520 37078 ft 477 kts 42°
2026-04-28 15:38 40.32749 -7.06656 37259 ft 477 kts 42°
2026-04-28 15:38 40.35236 -7.03780 37405 ft 477 kts 42°
2026-04-28 15:38 40.37743 -7.00876 37558 ft 477 kts 42°
2026-04-28 15:39 40.40211 -6.98015 37688 ft 477 kts 42°
2026-04-28 15:39 40.42652 -6.95182 37823 ft 477 kts 42°
2026-04-28 15:39 40.47671 -6.89347 37870 ft 480 kts 42°
2026-04-28 15:40 40.52644 -6.83554 37860 ft 481 kts 42°
2026-04-28 15:40 40.57570 -6.77805 37859 ft 479 kts 42°
2026-04-28 15:41 40.62504 -6.72033 37859 ft 478 kts 42°
2026-04-28 15:41 40.67501 -6.66176 37864 ft 478 kts 42°
2026-04-28 15:42 40.72451 -6.60361 37863 ft 480 kts 42°
2026-04-28 15:42 40.77429 -6.54502 37870 ft 480 kts 42°
2026-04-28 15:43 40.82415 -6.48621 37869 ft 480 kts 42°
2026-04-28 15:43 40.87384 -6.42746 37880 ft 481 kts 42°
2026-04-28 15:44 40.92364 -6.36847 37887 ft 481 kts 42°
2026-04-28 15:44 40.97358 -6.30918 37892 ft 482 kts 43°
2026-04-28 15:45 41.02356 -6.24972 37890 ft 482 kts 43°
2026-04-28 15:45 41.07353 -6.19015 37882 ft 483 kts 43°
2026-04-28 15:46 41.12331 -6.13067 37877 ft 483 kts 43°
2026-04-28 15:46 41.17337 -6.07073 37877 ft 483 kts 43°
2026-04-28 15:47 41.22317 -6.01097 37878 ft 483 kts 42°
2026-04-28 15:47 41.27298 -5.95108 37877 ft 482 kts 43°
2026-04-28 15:48 41.32242 -5.89148 37877 ft 482 kts 42°
2026-04-28 15:48 41.37194 -5.83169 37872 ft 483 kts 42°
2026-04-28 15:49 41.42171 -5.77144 37868 ft 483 kts 42°
2026-04-28 15:49 41.47109 -5.71155 37865 ft 484 kts 42°
2026-04-28 15:50 41.51796 -5.64775 37864 ft 483 kts 52°
2026-04-28 15:50 41.55283 -5.57171 37869 ft 480 kts 66°
2026-04-28 15:51 41.57993 -5.49050 37875 ft 480 kts 67°
2026-04-28 15:51 41.60695 -5.40907 37876 ft 481 kts 67°
2026-04-28 15:52 41.63384 -5.32781 37879 ft 481 kts 68°
2026-04-28 15:52 41.66080 -5.24607 37885 ft 482 kts 68°
2026-04-28 15:53 41.68770 -5.16428 37893 ft 482 kts 68°
2026-04-28 15:53 41.71451 -5.08253 37900 ft 482 kts 68°
2026-04-28 15:54 41.74145 -5.00013 37909 ft 482 kts 68°
2026-04-28 15:54 41.76820 -4.91804 37910 ft 482 kts 68°
2026-04-28 15:55 41.79484 -4.83608 37897 ft 483 kts 67°
2026-04-28 15:55 41.82158 -4.75356 37896 ft 483 kts 68°
2026-04-28 15:56 41.84821 -4.67111 37897 ft 483 kts 67°
2026-04-28 15:56 41.87477 -4.58863 37888 ft 483 kts 68°
2026-04-28 15:57 41.90136 -4.50581 37889 ft 483 kts 67°
2026-04-28 15:57 41.92779 -4.42324 37894 ft 483 kts 68°
2026-04-28 15:58 41.95416 -4.34057 37904 ft 483 kts 68°
2026-04-28 15:58 41.98050 -4.25777 37909 ft 483 kts 68°
2026-04-28 15:59 42.00697 -4.17428 37910 ft 483 kts 68°
2026-04-28 15:59 42.03348 -4.09204 37902 ft 483 kts 65°
2026-04-28 16:00 42.06238 -4.01035 37908 ft 484 kts 65°
2026-04-28 16:00 42.09110 -3.92893 37927 ft 484 kts 65°
2026-04-28 16:01 42.12003 -3.84668 37916 ft 485 kts 65°
2026-04-28 16:01 42.14878 -3.76467 37918 ft 485 kts 65°
2026-04-28 16:02 42.17732 -3.68301 37923 ft 485 kts 65°
2026-04-28 16:02 42.20602 -3.60065 37939 ft 484 kts 65°
2026-04-28 16:03 42.23465 -3.51821 37935 ft 485 kts 65°
2026-04-28 16:03 42.26298 -3.43641 37949 ft 485 kts 65°
2026-04-28 16:04 42.29147 -3.35390 37960 ft 485 kts 65°
2026-04-28 16:04 42.31977 -3.27170 37965 ft 485 kts 66°
2026-04-28 16:05 42.34804 -3.18931 37961 ft 485 kts 66°
2026-04-28 16:05 42.37637 -3.10653 37956 ft 485 kts 66°
2026-04-28 16:06 42.40465 -3.02363 37950 ft 485 kts 66°
2026-04-28 16:06 42.43296 -2.94131 37940 ft 485 kts 63°
2026-04-28 16:07 42.47007 -2.86568 37927 ft 485 kts 49°
2026-04-28 16:08 42.54343 -2.77218 37928 ft 484 kts 40°
2026-04-28 16:08 42.59369 -2.71149 37922 ft 484 kts 40°
2026-04-28 16:09 42.66906 -2.62025 37930 ft 485 kts 40°
2026-04-28 16:10 42.74436 -2.52880 37948 ft 485 kts 40°
2026-04-28 16:10 42.81984 -2.43682 37949 ft 486 kts 40°
2026-04-28 16:11 42.92020 -2.31406 37924 ft 486 kts 41°
2026-04-28 16:12 42.99535 -2.22176 37922 ft 487 kts 41°
2026-04-28 16:13 43.07066 -2.12879 37918 ft 487 kts 41°
2026-04-28 16:14 43.17045 -2.00523 37917 ft 486 kts 41°
2026-04-28 16:15 43.27066 -1.88062 37919 ft 487 kts 41°
2026-04-28 16:15 43.32267 -1.82189 37919 ft 485 kts 30°
2026-04-28 16:16 43.40915 -1.74988 37923 ft 486 kts 31°
2026-04-28 16:17 43.49352 -1.67347 37917 ft 486 kts 31°
2026-04-28 16:17 43.55005 -1.62220 37925 ft 486 kts 31°
2026-04-28 16:18 43.60625 -1.57113 37924 ft 486 kts 31°
2026-04-28 16:18 43.66265 -1.51979 37906 ft 487 kts 31°
2026-04-28 16:19 43.71877 -1.46860 37907 ft 487 kts 31°
2026-04-28 16:19 43.77528 -1.41694 37917 ft 487 kts 31°
2026-04-28 16:20 43.83170 -1.36526 37928 ft 487 kts 31°
2026-04-28 16:20 43.88812 -1.31346 37927 ft 488 kts 31°
2026-04-28 16:21 43.94441 -1.26167 37927 ft 488 kts 32°
2026-04-28 16:21 44.00105 -1.20944 37925 ft 488 kts 31°
2026-04-28 16:22 44.05754 -1.15724 37928 ft 489 kts 31°
2026-04-28 16:22 44.11385 -1.10507 37936 ft 488 kts 31°
2026-04-28 16:23 44.17006 -1.05288 37935 ft 488 kts 31°
2026-04-28 16:23 44.22656 -1.00030 37940 ft 487 kts 31°
2026-04-28 16:24 44.28302 -0.94764 37919 ft 488 kts 31°
2026-04-28 16:24 44.33955 -0.89478 37923 ft 488 kts 31°
2026-04-28 16:25 44.39607 -0.84297 37914 ft 486 kts 26°
2026-04-28 16:25 44.45707 -0.80380 37892 ft 483 kts 20°
2026-04-28 16:26 44.51848 -0.76638 37903 ft 483 kts 20°
2026-04-28 16:26 44.58020 -0.72868 37912 ft 483 kts 20°
2026-04-28 16:27 44.64180 -0.69096 37909 ft 482 kts 20°
2026-04-28 16:28 44.73361 -0.63457 37910 ft 482 kts 20°
2026-04-28 16:28 44.79493 -0.59679 37937 ft 482 kts 20°
2026-04-28 16:29 44.88672 -0.54008 37934 ft 481 kts 20°
2026-04-28 16:30 44.97886 -0.48296 37905 ft 481 kts 20°
2026-04-28 16:30 45.04004 -0.44491 37906 ft 480 kts 20°
2026-04-28 16:31 45.10099 -0.40691 37897 ft 480 kts 20°
2026-04-28 16:31 45.16186 -0.36888 37910 ft 480 kts 20°
2026-04-28 16:32 45.22331 -0.33040 37936 ft 480 kts 21°
2026-04-28 16:32 45.31461 -0.27305 37922 ft 482 kts 21°
2026-04-28 16:33 45.36582 -0.24080 37923 ft 482 kts 21°
2026-04-28 16:33 45.43721 -0.19566 37916 ft 481 kts 21°
2026-04-28 16:34 45.49841 -0.15687 37909 ft 482 kts 21°
2026-04-28 16:34 45.55954 -0.11807 37918 ft 482 kts 21°
2026-04-28 16:35 45.62080 -0.07912 37914 ft 482 kts 21°
2026-04-28 16:35 45.68182 -0.04022 37922 ft 483 kts 21°
2026-04-28 16:36 45.74297 -0.00112 37922 ft 483 kts 21°
2026-04-28 16:36 45.80433 0.03819 37933 ft 484 kts 21°
2026-04-28 16:37 45.86566 0.07757 37920 ft 483 kts 21°
2026-04-28 16:38 45.95749 0.13673 37926 ft 484 kts 21°
2026-04-28 16:38 46.01896 0.17640 37941 ft 484 kts 21°
2026-04-28 16:39 46.08015 0.21600 37937 ft 483 kts 21°
2026-04-28 16:39 46.14145 0.25577 37922 ft 484 kts 21°
2026-04-28 16:40 46.20287 0.29573 37932 ft 485 kts 21°
2026-04-28 16:40 46.26417 0.33571 37937 ft 484 kts 21°
2026-04-28 16:41 46.32516 0.37559 37946 ft 485 kts 21°
2026-04-28 16:41 46.38676 0.41598 37952 ft 485 kts 21°
2026-04-28 16:42 46.44812 0.45631 37962 ft 486 kts 21°
2026-04-28 16:42 46.50951 0.49676 37958 ft 485 kts 21°
2026-04-28 16:43 46.57181 0.53374 37952 ft 482 kts 12°
2026-04-28 16:43 46.63662 0.55568 37953 ft 481 kts
2026-04-28 16:44 46.70183 0.57712 37951 ft 480 kts
2026-04-28 16:44 46.76705 0.59863 37949 ft 482 kts
2026-04-28 16:45 46.83215 0.62016 37953 ft 481 kts
2026-04-28 16:45 46.89738 0.64178 37948 ft 482 kts
2026-04-28 16:46 46.96292 0.66357 37980 ft 481 kts 10°
2026-04-28 16:46 47.02784 0.68700 37980 ft 485 kts 16°
2026-04-28 16:47 47.08892 0.72879 37968 ft 489 kts 29°
2026-04-28 16:47 47.14736 0.78089 37974 ft 488 kts 30°
2026-04-28 16:48 47.20551 0.83280 37954 ft 489 kts 30°
2026-04-28 16:48 47.26361 0.88480 37968 ft 488 kts 30°
2026-04-28 16:49 47.32158 0.93682 37970 ft 489 kts 30°
2026-04-28 16:49 47.37946 0.98888 37968 ft 489 kts 30°
2026-04-28 16:50 47.43745 1.04119 37970 ft 488 kts 30°
2026-04-28 16:50 47.49488 1.09312 37951 ft 488 kts 30°
2026-04-28 16:51 47.55410 1.14138 37964 ft 486 kts 26°
2026-04-28 16:51 47.61377 1.18785 37971 ft 485 kts 26°
2026-04-28 16:52 47.67337 1.23442 37969 ft 486 kts 26°
2026-04-28 16:52 47.73335 1.28144 37981 ft 486 kts 26°
2026-04-28 16:53 47.79283 1.32820 37998 ft 485 kts 26°
2026-04-28 16:53 47.85218 1.37501 37986 ft 485 kts 26°
2026-04-28 16:54 47.91172 1.42209 37980 ft 485 kts 26°
2026-04-28 16:54 47.97133 1.46936 37987 ft 484 kts 26°
2026-04-28 16:55 48.03121 1.51699 37994 ft 483 kts 26°
2026-04-28 16:55 48.09075 1.56446 37992 ft 484 kts 26°
2026-04-28 16:56 48.14987 1.61173 37990 ft 484 kts 26°
2026-04-28 16:56 48.20947 1.65952 37987 ft 484 kts 27°
2026-04-28 16:57 48.26924 1.70758 37990 ft 483 kts 27°
2026-04-28 16:57 48.32847 1.75532 37985 ft 483 kts 27°
2026-04-28 16:58 48.38784 1.80331 37991 ft 483 kts 27°
2026-04-28 16:58 48.44675 1.85106 38004 ft 482 kts 27°
2026-04-28 16:59 48.50559 1.89887 37993 ft 482 kts 27°
2026-04-28 16:59 48.56435 1.94676 38001 ft 481 kts 27°
2026-04-28 17:00 48.62350 1.99507 38022 ft 481 kts 27°
2026-04-28 17:00 48.68011 2.04798 38022 ft 480 kts 37°
2026-04-28 17:01 48.72838 2.11783 38024 ft 480 kts 50°
2026-04-28 17:01 48.76519 2.20194 38024 ft 479 kts 63°
2026-04-28 17:02 48.78885 2.29629 38016 ft 478 kts 75°
2026-04-28 17:02 48.80629 2.39364 38016 ft 478 kts 75°
2026-04-28 17:03 48.83230 2.53956 38024 ft 478 kts 75°
2026-04-28 17:03 48.84949 2.63671 38023 ft 478 kts 75°
2026-04-28 17:04 48.87521 2.78310 38024 ft 478 kts 76°
2026-04-28 17:05 48.90068 2.92928 38019 ft 478 kts 76°
2026-04-28 17:06 48.92598 3.07573 38024 ft 478 kts 76°
2026-04-28 17:06 48.95100 3.22184 38011 ft 478 kts 76°
2026-04-28 17:07 48.96772 3.32010 38010 ft 478 kts 76°
2026-04-28 17:07 48.98431 3.41824 38010 ft 480 kts 76°
2026-04-28 17:08 49.00082 3.51643 38008 ft 480 kts 76°
2026-04-28 17:08 49.01723 3.61458 38021 ft 480 kts 76°
2026-04-28 17:09 49.03336 3.71166 38020 ft 480 kts 76°
2026-04-28 17:09 49.04960 3.80993 38010 ft 480 kts 76°
2026-04-28 17:10 49.06574 3.90814 38025 ft 481 kts 76°
2026-04-28 17:10 49.08194 4.00731 38022 ft 481 kts 76°
2026-04-28 17:11 49.09800 4.10628 38004 ft 482 kts 76°
2026-04-28 17:11 49.11395 4.20508 38015 ft 481 kts 76°
2026-04-28 17:12 49.12987 4.30429 38015 ft 483 kts 76°
2026-04-28 17:12 49.14961 4.40179 38026 ft 482 kts 67°
2026-04-28 17:13 49.17529 4.49572 38036 ft 483 kts 66°
2026-04-28 17:13 49.20091 4.59013 38021 ft 483 kts 66°
2026-04-28 17:14 49.22665 4.68538 38027 ft 482 kts 67°
2026-04-28 17:14 49.25221 4.78045 38030 ft 482 kts 67°
2026-04-28 17:15 49.27687 4.87256 38045 ft 482 kts 67°
2026-04-28 17:15 49.30224 4.96776 38037 ft 481 kts 67°
2026-04-28 17:16 49.32726 5.06202 38040 ft 481 kts 67°
2026-04-28 17:16 49.35238 5.15709 38037 ft 481 kts 67°
2026-04-28 17:17 49.37727 5.25164 38042 ft 481 kts 67°
2026-04-28 17:17 49.40399 5.34476 38055 ft 479 kts 59°
2026-04-28 17:18 49.44179 5.42782 38052 ft 475 kts 46°
2026-04-28 17:18 49.49030 5.49605 38065 ft 471 kts 33°
2026-04-28 17:19 49.54616 5.54727 38061 ft 467 kts 25°
2026-04-28 17:19 49.60381 5.59390 38068 ft 467 kts 25°
2026-04-28 17:20 49.65144 5.63259 37977 ft 462 kts 25°
2026-04-28 17:20 49.68907 5.66322 37614 ft 463 kts 26°
2026-04-28 17:20 49.71772 5.68659 37207 ft 458 kts 25°
2026-04-28 17:21 49.74575 5.70949 36935 ft 458 kts 25°
2026-04-28 17:21 49.77429 5.73282 36702 ft 463 kts 25°
2026-04-28 17:21 49.80288 5.75622 36463 ft 469 kts 26°
2026-04-28 17:22 49.85997 5.80535 36116 ft 475 kts 32°
2026-04-28 17:22 49.91172 5.86955 36091 ft 472 kts 38°
2026-04-28 17:23 49.96130 5.93381 35153 ft 469 kts 38°
2026-04-28 17:23 49.98616 5.96602 34736 ft 464 kts 38°
2026-04-28 17:23 50.01111 5.99856 34483 ft 470 kts 38°
2026-04-28 17:23 50.03626 6.03159 34226 ft 478 kts 38°
2026-04-28 17:24 50.06151 6.06478 34111 ft 481 kts 38°
2026-04-28 17:24 50.08688 6.09812 34102 ft 473 kts 38°
2026-04-28 17:24 50.11177 6.13086 34001 ft 461 kts 38°
2026-04-28 17:24 50.13605 6.16303 33354 ft 461 kts 38°
2026-04-28 17:25 50.16065 6.19572 32445 ft 466 kts 38°
2026-04-28 17:25 50.21067 6.25936 31092 ft 457 kts 28°
2026-04-28 17:25 50.23926 6.27780 30426 ft 441 kts
2026-04-28 17:26 50.26933 6.28521 29134 ft 441 kts
2026-04-28 17:26 50.29980 6.29148 27713 ft 444 kts
2026-04-28 17:26 50.32991 6.29784 26493 ft 441 kts
2026-04-28 17:26 50.36004 6.30420 25186 ft 440 kts
2026-04-28 17:27 50.39005 6.31054 23935 ft 435 kts
2026-04-28 17:27 50.41968 6.31681 22729 ft 430 kts
2026-04-28 17:27 50.44852 6.32668 21415 ft 427 kts 18°
2026-04-28 17:27 50.47475 6.34627 20150 ft 422 kts 32°
2026-04-28 17:28 50.49699 6.37511 19184 ft 412 kts 46°
2026-04-28 17:28 50.52594 6.44893 18030 ft 390 kts 65°
2026-04-28 17:28 50.53645 6.48756 17616 ft 378 kts 66°
2026-04-28 17:29 50.54658 6.52470 17252 ft 365 kts 66°
2026-04-28 17:29 50.55641 6.56076 16899 ft 354 kts 66°
2026-04-28 17:29 50.56596 6.59585 16545 ft 345 kts 66°
2026-04-28 17:30 50.58466 6.66477 15891 ft 346 kts 67°
2026-04-28 17:30 50.60339 6.73401 15187 ft 342 kts 67°
2026-04-28 17:30 50.61177 6.76851 14928 ft 338 kts 71°
2026-04-28 17:31 50.61927 6.80379 14532 ft 338 kts 71°
2026-04-28 17:31 50.63391 6.87295 13877 ft 334 kts 71°
2026-04-28 17:32 50.64849 6.94205 13260 ft 330 kts 71°
2026-04-28 17:32 50.65574 6.97646 12904 ft 329 kts 71°
2026-04-28 17:32 50.66285 7.01029 12614 ft 327 kts 71°
2026-04-28 17:32 50.66996 7.04422 12297 ft 326 kts 71°
2026-04-28 17:33 50.67701 7.07786 11971 ft 322 kts 71°
2026-04-28 17:33 50.68395 7.11110 11691 ft 317 kts 71°
2026-04-28 17:33 50.69070 7.14346 11381 ft 310 kts 71°
2026-04-28 17:33 50.69514 7.16478 11169 ft 305 kts 71°
2026-04-28 17:34 50.70381 7.20645 10789 ft 293 kts 71°
2026-04-28 17:34 50.71000 7.23628 10509 ft 286 kts 71°
2026-04-28 17:34 50.71616 7.26599 10217 ft 280 kts 71°
2026-04-28 17:34 50.72211 7.29471 9964 ft 279 kts 71°
2026-04-28 17:35 50.72813 7.32387 9690 ft 278 kts 71°
2026-04-28 17:35 50.73404 7.35252 9410 ft 276 kts 71°
2026-04-28 17:35 50.73996 7.38122 9161 ft 274 kts 71°
2026-04-28 17:35 50.74583 7.40974 8879 ft 273 kts 71°
2026-04-28 17:36 50.75163 7.43799 8621 ft 271 kts 72°
2026-04-28 17:36 50.75748 7.46651 8364 ft 269 kts 72°
2026-04-28 17:36 50.76318 7.49427 8102 ft 268 kts 72°
2026-04-28 17:36 50.76878 7.52169 7861 ft 260 kts 72°
2026-04-28 17:37 50.77430 7.54865 7600 ft 253 kts 72°
2026-04-28 17:37 50.77959 7.57462 7355 ft 245 kts 72°
2026-04-28 17:37 50.78516 7.59958 7120 ft 238 kts 65°
2026-04-28 17:37 50.79260 7.62258 6895 ft 231 kts 63°
2026-04-28 17:38 50.79997 7.64471 6671 ft 225 kts 63°
2026-04-28 17:38 50.80714 7.66638 6455 ft 219 kts 64°
2026-04-28 17:38 50.81402 7.68719 6245 ft 212 kts 64°
2026-04-28 17:38 50.82074 7.70756 6046 ft 206 kts 64°
2026-04-28 17:39 50.82729 7.72741 5843 ft 201 kts 64°
2026-04-28 17:39 50.83369 7.74685 5649 ft 197 kts 64°
2026-04-28 17:39 50.84501 7.78599 5256 ft 196 kts 83°
2026-04-28 17:40 50.84323 7.80676 5165 ft 194 kts 113°
2026-04-28 17:40 50.83564 7.82484 5160 ft 201 kts 124°
2026-04-28 17:40 50.82693 7.84212 5040 ft 201 kts 124°
2026-04-28 17:40 50.81830 7.85934 5010 ft 199 kts 124°
2026-04-28 17:41 50.80969 7.87671 4999 ft 200 kts 124°
2026-04-28 17:41 50.80102 7.89431 4766 ft 206 kts 124°
2026-04-28 17:41 50.79234 7.91190 4523 ft 201 kts 124°
2026-04-28 17:41 50.78394 7.92886 4240 ft 191 kts 123°
2026-04-28 17:42 50.77608 7.94476 4000 ft 180 kts 123°
2026-04-28 17:42 50.77095 7.95515 3826 ft 174 kts 122°
2026-04-28 17:42 50.76147 7.97433 3534 ft 159 kts 122°
2026-04-28 17:42 50.75493 7.98756 3294 ft 144 kts 121°
2026-04-28 17:43 50.74923 7.99902 3143 ft 128 kts 120°
2026-04-28 17:43 50.74373 8.01032 2958 ft 127 kts 121°
2026-04-28 17:43 50.73830 8.02134 2798 ft 128 kts 121°
2026-04-28 17:43 50.73273 8.03266 2645 ft 132 kts 121°
2026-04-28 17:44 50.72707 8.04397 2480 ft 132 kts 122°
2026-04-28 17:44 50.72139 8.05525 2287 ft 131 kts 123°
2026-04-28 17:44 50.71574 8.06664 2096 ft 133 kts 122°
2026-04-28 17:44 50.71030 8.07762 1966 ft 113 kts 126°
2026-04-28 17:45 50.70780 8.08267 1960 ft 19 kts 127°
2026-04-28 17:45 50.70718 8.08288 1958 ft 12 kts 277°
2026-04-28 17:45 50.70729 8.08154 1961 ft 12 kts 271°
2026-04-28 17:45 50.70684 8.08055 1963 ft 10 kts 270°
2026-04-28 17:46 50.70725 8.07959 1966 ft 10 kts 307°
2026-04-28 17:46 50.70768 8.07872 1968 ft 8 kts 310°
2026-04-28 17:46 50.70776 8.07804 1968 ft 8 kts 219°
2026-04-28 17:46 50.70745 8.07802 1967 ft 1 kts 133°
2026-04-28 17:47 50.70737 8.07811 1967 ft 0 kts 154°